Vorticity
nan nan nan nan nan nan nan nan nan nan nan nan nan nan nan nan nan nan nan nan nan nan nan nan nan nan nan nan nan nan nan nan nan nan nan nan nan nan nan nan nan nan nan nan nan
nan 6 6 6 7 7 6 9 9 8 7 7 6 7 7 10 17 14 16 10 11 6 5 3 6 5 5 7 7 6 7 8 3 9 10 3 -1 7 -1 9 0 3 14 13 nan
nan 7 6 6 7 7 8 10 9 7 7 7 7 8 7 12 17 17 16 12 7 1 4 7 7 7 5 8 8 5 4 8 12 6 10 8 6 6 3 8 8 10 9 3 nan
nan 6 7 6 7 8 9 9 7 7 9 7 8 8 11 12 6 9 16 23 12 6 5 7 5 5 8 8 5 2 8 3 10 10 1 8 10 5 8 8 19 22 13 6 nan
nan 7 7 6 7 8 8 8 8 7 9 8 8 10 13 8 6 6 17 18 9 7 4 5 5 5 8 7 6 8 10 12 10 11 4 9 10 5 8 8 20 19 10 6 nan
nan 7 7 7 7 8 8 9 8 8 10 9 8 10 11 2 13 9 8 6 6 6 4 1 4 5 9 15 9 12 13 11 15 13 12 7 10 9 7 12 13 10 6 7 nan
nan 7 7 9 9 9 11 9 9 10 10 9 9 10 8 8 7 8 -2 2 12 8 5 7 5 5 6 11 13 9 9 8 13 8 8 7 3 8 12 10 8 7 6 7 nan
nan 7 7 9 10 11 12 11 11 11 8 8 9 9 8 12 7 8 6 9 14 11 5 14 12 6 7 8 11 8 5 4 9 5 7 6 4 5 14 9 7 5 5 7 nan
nan 7 7 9 10 12 12 11 11 10 8 10 9 6 8 11 10 13 13 10 14 14 9 9 12 8 12 7 5 10 9 6 4 9 8 11 6 9 14 8 6 6 6 6 nan
nan 7 8 10 13 14 10 11 10 8 6 5 8 10 10 3 8 13 14 8 8 7 6 6 6 9 11 10 8 7 10 12 6 12 9 7 5 10 12 9 7 6 7 8 nan
nan 7 10 13 15 12 5 5 6 9 4 1 3 4 3 9 14 8 9 8 7 2 5 9 10 16 7 2 11 11 10 10 5 9 7 9 5 8 13 11 7 7 8 7 nan
nan 8 12 16 15 4 1 1 5 10 17 13 -1 4 8 10 11 10 7 8 6 8 13 8 9 10 11 12 11 13 9 4 5 9 11 9 3 5 13 12 9 9 8 8 nan
nan 10 15 16 6 5 10 3 -6 7 17 19 12 8 15 10 8 10 8 13 10 6 6 9 12 11 9 9 4 7 12 9 9 5 12 10 4 4 7 11 9 10 10 11 nan
nan 12 14 4 3 6 12 12 4 6 14 13 9 13 11 7 9 8 11 8 6 12 7 13 9 12 9 4 6 9 7 14 11 4 3 7 8 15 6 7 9 11 11 11 nan
nan 15 13 -8 -0 4 11 17 12 10 12 10 6 10 12 9 9 8 9 16 12 8 5 11 11 8 5 6 12 13 11 9 7 8 9 9 5 9 10 9 12 10 11 11 nan
nan 14 3 1 4 7 9 14 8 6 13 10 9 9 5 7 7 7 6 9 11 10 12 7 7 8 8 11 16 8 4 5 6 9 8 9 8 3 10 14 16 11 11 8 nan
nan 14 1 2 4 13 13 7 8 8 11 13 10 10 4 7 8 10 10 7 8 6 8 2 6 10 10 6 8 7 3 3 7 8 9 10 11 14 12 15 15 14 8 5 nan
nan 8 3 2 -1 10 15 9 9 11 4 8 17 11 7 5 4 11 11 5 6 10 11 6 7 6 6 6 8 12 9 11 11 11 11 8 9 10 7 13 18 15 8 6 nan
nan 3 10 15 6 6 14 9 7 10 13 9 12 5 5 6 8 7 8 9 7 13 9 8 8 7 9 11 14 10 10 9 12 8 9 11 12 7 7 13 15 12 8 7 nan
nan 8 16 18 11 4 11 11 7 7 13 13 8 9 8 6 6 8 7 8 7 9 12 13 4 8 8 4 8 13 13 7 7 7 10 9 8 16 15 12 12 9 7 7 nan
nan 6 18 14 6 9 11 10 9 9 12 13 7 10 9 8 11 12 5 4 10 9 11 9 8 10 8 12 5 9 2 5 8 10 11 9 11 10 13 17 14 10 9 7 nan
nan 10 9 5 5 10 12 7 9 11 9 11 11 13 13 7 10 12 5 6 12 8 8 7 13 10 8 7 9 9 14 8 10 10 5 9 11 9 8 11 15 14 12 10 nan
nan 6 8 12 12 6 10 9 10 12 12 9 10 9 15 10 7 11 8 9 12 12 12 7 8 8 7 7 10 12 9 6 7 11 10 4 7 10 7 9 12 13 12 11 nan
nan 6 8 10 14 15 7 8 5 7 10 9 9 10 12 7 11 15 7 7 10 9 11 11 8 9 6 7 13 16 11 7 -0 0 9 2 7 8 7 8 11 14 13 11 nan
nan 12 13 13 11 14 11 6 5 6 8 10 8 13 7 8 9 8 9 7 9 9 8 11 10 11 10 10 9 9 14 12 5 0 -0 3 5 3 12 12 11 13 12 11 nan
nan 9 14 15 12 11 9 13 5 6 12 13 13 12 8 10 14 14 10 9 11 9 7 10 13 11 9 8 9 11 9 10 11 8 5 7 5 15 14 13 15 13 11 9 nan
nan nan nan nan nan nan nan nan nan nan nan nan nan nan nan nan nan nan nan nan nan nan nan nan nan nan nan nan nan nan nan nan nan nan nan nan nan nan nan nan nan nan nan nan nan
CAPE
4 1 2 8 3 2 4 1 2 5 7 3 1 1 1 1 1 0 0 0 0 0 0 0 0 0 0 0 0 0 0 25 259 482 313 209 131 30 9 29 93 123 541 994 1009
4 3 4 1 1 7 5 1 3 4 8 4 0 1 2 2 0 0 0 0 0 0 0 0 0 0 0 0 0 0 0 0 0 86 63 82 33 35 46 106 112 195 1057 1144 881
2 4 4 2 6 6 3 7 6 3 9 3 1 0 6 1 0 0 0 0 0 3 0 0 0 0 0 0 0 0 0 0 0 8 39 85 70 128 147 209 270 234 1307 812 1009
0 0 3 7 2 7 2 2 4 1 4 4 1 1 1 0 0 0 243 223 21 0 0 0 0 0 0 0 0 0 0 0 0 16 25 59 110 152 278 183 195 241 1350 1312 1063
0 0 0 2 5 2 1 3 1 1 5 1 1 1 0 1 0 132 198 127 0 0 0 0 0 0 0 0 0 0 0 0 0 0 46 76 120 148 254 207 287 866 1291 1044 917
0 0 0 0 3 0 0 3 1 2 2 0 0 1 0 0 0 82 104 0 0 0 0 0 0 0 0 0 0 0 0 0 0 0 10 59 131 281 195 369 730 1168 923 379 178
0 0 0 0 2 1 0 1 1 3 0 0 2 0 0 1 0 100 0 0 0 0 0 0 0 0 0 0 0 0 0 0 0 0 0 38 38 0 136 380 684 602 410 228 9
0 0 0 0 0 0 0 1 2 1 0 1 1 1 12 0 0 1 0 3 0 0 0 0 0 0 0 0 0 0 0 0 0 0 0 1 2 0 100 319 452 395 321 218 82
0 0 0 0 0 0 0 0 0 0 0 0 1 5 26 0 0 0 2 0 0 0 0 0 0 0 0 0 0 0 0 0 0 0 0 0 0 0 173 228 438 445 345 220 75
0 0 0 0 0 0 0 0 0 0 0 1 0 141 130 3 2 5 0 0 8 0 0 0 0 0 0 0 0 2 0 0 0 0 0 0 0 0 251 202 222 350 370 287 205
0 0 0 0 0 0 0 0 0 0 0 0 0 18 0 3 0 0 0 3 0 15 19 0 24 0 0 0 0 0 3 0 0 0 0 0 0 0 49 317 262 249 301 315 254
0 0 0 0 0 0 0 0 0 0 6 0 0 0 0 0 27 0 0 3 2 7 40 65 48 0 0 0 0 0 8 34 0 0 2 20 34 0 4 308 351 320 312 307 178
0 0 0 0 0 3 0 0 0 0 262 0 0 1 0 0 17 5 0 18 8 14 70 73 37 9 29 9 36 50 64 39 12 0 0 18 66 37 0 4 51 146 307 274 354
0 0 0 0 0 0 0 0 0 0 40 0 0 0 0 3 1 0 0 22 57 2 99 114 13 53 76 55 52 102 11 0 1 25 76 1 124 124 66 0 1 67 163 349 487
0 0 0 0 0 0 0 0 0 34 0 0 0 0 0 2 0 0 0 30 19 18 27 124 77 74 101 46 1 78 0 8 8 43 57 23 33 198 31 92 3 10 225 466 507
0 0 0 2 0 0 1 189 116 231 10 0 0 0 0 0 0 2 31 10 21 80 107 86 29 69 65 7 8 17 85 97 87 69 64 54 46 3 38 38 73 10 308 317 139
0 0 3 0 0 96 27 137 66 0 0 0 0 0 0 0 0 1 35 33 79 144 178 108 87 19 17 71 29 73 68 8 28 64 17 4 2 0 0 0 34 88 249 41 0
0 0 4 0 0 0 53 111 0 0 0 0 0 0 0 0 1 16 63 49 17 84 171 113 113 1 0 48 44 27 14 0 0 0 0 0 22 65 0 0 3 75 111 0 0
0 12 7 0 0 0 16 21 0 0 0 0 0 0 4 0 0 10 62 68 28 61 65 84 29 0 0 0 0 0 0 0 4 0 2 0 4 4 0 0 5 82 43 1 0
2 4 0 0 0 0 43 1 0 0 0 0 0 0 0 0 0 0 31 0 0 0 9 72 37 0 0 0 0 3 0 0 0 0 0 0 0 0 0 0 0 48 41 0 0
1 0 37 40 16 51 23 0 0 79 0 0 0 0 0 0 0 0 4 0 0 0 0 43 22 2 0 0 0 0 0 0 0 0 0 0 0 0 0 0 0 30 13 0 0
1 10 229 54 111 181 4 0 27 0 4 0 0 0 0 7 6 0 0 0 0 0 19 0 14 64 0 0 0 0 0 0 0 0 0 0 0 0 0 0 0 0 0 0 0
3 178 28 0 120 22 0 0 94 0 0 1 0 0 14 32 14 21 26 0 0 0 0 0 0 15 2 0 0 0 0 0 0 0 0 43 0 0 0 0 0 0 0 0 0
74 276 329 16 6 4 0 0 2 0 0 9 34 86 95 67 30 69 18 0 0 0 0 0 0 0 0 0 0 0 0 0 0 0 0 0 0 0 0 0 0 0 0 0 0
211 136 164 125 2 0 0 0 7 37 3 27 63 108 127 131 50 62 5 0 0 0 0 0 0 0 0 0 0 0 0 0 0 0 0 0 0 0 0 0 0 0 0 0 0
153 154 16 120 0 0 0 2 16 6 56 61 180 120 141 187 66 140 27 0 0 0 0 0 0 0 0 0 0 0 0 0 0 0 0 0 0 0 0 0 0 0 0 0 0
244 0 107 1 0 1 1 13 10 191 5 0 191 121 114 23 1 16 0 0 0 0 0 0 0 0 0 0 0 0 0 0 0 0 0 0 0 0 0 0 0 0 0 0 0